Location: Cudham
(51.3000°N, 0.0667°E)
Time: 23:24:47
(UTC+00:00)

Cosmos 990 Rocket - Pass Details

Date: 15 May 2026
Orbit: 742 x 763 km, 74.0° (Epoch: 6 June)

Event Time Altitude Azimuth Distance (km) Brightness Sun altitude
Rises 21:14:43 0° 337° (NNW) 3,207 8.9 -11.3°
Reaches altitude 10° 21:17:09 10° 342° (NNW) 2,282 7.7 -11.5°
Maximum altitude 21:22:12 52° 59° (ENE) 935 4.4 -12.0°
Enters shadow 21:26:04 17° 132° (SE) 1,850 5.4 -12.4°
